| time (UTC) | temp F | wind direction | speed knots | gust knots | rain 1hr in | rain 24hr in | rain mn in | humidity % | barometer mb |
| 20260901154849 | 88 | 17 | 0.0 | 0.0 | 0.00 | 0.00 | 0.00 | 67 | 1039.6 |
| 20260901154347 | 89 | 332 | 0.0 | 0.0 | 0.00 | 0.00 | 0.00 | 68 | 1039.4 |
| 20260901153842 | 89 | 352 | 0.0 | 0.0 | 0.00 | 0.00 | 0.00 | 67 | 1039.6 |
| 20260901153337 | 89 | 34 | 0.0 | 0.0 | 0.00 | 0.00 | 0.00 | 68 | 1039.5 |
| 20260901152836 | 89 | 359 | 0.0 | 0.0 | 0.00 | 0.00 | 0.00 | 64 | 1039.7 |
| 20260901152336 | 88 | 35 | 0.0 | 0.0 | 0.00 | 0.00 | 0.00 | 67 | 1039.6 |
| 20260901151831 | 88 | 43 | 0.0 | 0.0 | 0.00 | 0.00 | 0.00 | 67 | 1039.6 |
| 20260901151326 | 88 | 19 | 0.0 | 0.0 | 0.00 | 0.00 | 0.00 | 67 | 1039.7 |
| 20260901150825 | 88 | 15 | 0.0 | 0.0 | 0.00 | 0.00 | 0.00 | 69 | 1039.8 |
| 20260901150323 | 88 | 33 | 0.0 | 0.0 | 0.00 | 0.00 | 0.00 | 70 | 1039.9 |
| 20260901145821 | 87 | 342 | 0.0 | 0.0 | 0.00 | 0.00 | 0.00 | 71 | 1039.8 |
| 20260901145321 | 87 | 358 | 0.0 | 0.0 | 0.00 | 0.00 | 0.00 | 72 | 1039.8 |
| 20260901144816 | 87 | 220 | 0.9 | 0.9 | 0.00 | 0.00 | 0.00 | 72 | 1039.7 |
| 20260901144312 | 87 | 289 | 0.0 | 0.0 | 0.00 | 0.00 | 0.00 | 72 | 1039.5 |
| 20260901143808 | 88 | 0 | 0.0 | 0.0 | 0.00 | 0.00 | 0.00 | 72 | 1039.7 |
| 20260901143304 | 87 | 9 | 0.0 | 0.0 | 0.00 | 0.00 | 0.00 | 72 | 1039.6 |
| 20260901142800 | 87 | 350 | 0.0 | 0.0 | 0.00 | 0.00 | 0.00 | 75 | 1039.8 |
| 20260901142258 | 85 | 0 | 0.0 | 0.0 | 0.00 | 0.00 | 0.00 | 78 | 1039.8 |
| 20260901141754 | 84 | 350 | 0.0 | 0.0 | 0.00 | 0.00 | 0.00 | 80 | 1039.8 |
| 20260901141249 | 83 | 1 | 0.0 | 0.0 | 0.00 | 0.00 | 0.00 | 81 | 1039.8 |
| 20260901140748 | 81 | 8 | 0.0 | 0.0 | 0.00 | 0.00 | 0.00 | 83 | 1039.6 |
| 20260901140246 | 81 | 266 | 0.0 | 0.0 | 0.00 | 0.00 | 0.00 | 84 | 1039.6 |
| 20260901135741 | 80 | 349 | 0.0 | 0.0 | 0.00 | 0.00 | 0.00 | 85 | 1039.6 |
| 20260901135236 | 80 | 345 | 0.0 | 0.0 | 0.00 | 0.00 | 0.00 | 86 | 1039.6 |
| 20260901134731 | 80 | 340 | 0.0 | 0.0 | 0.00 | 0.00 | 0.00 | 86 | 1039.7 |
| 20260901134226 | 79 | 312 | 0.0 | 0.0 | 0.00 | 0.00 | 0.00 | 87 | 1039.6 |
| 20260901133725 | 78 | 307 | 0.0 | 0.0 | 0.00 | 0.00 | 0.00 | 89 | 1039.8 |
| 20260901133225 | 78 | 342 | 0.0 | 0.0 | 0.00 | 0.00 | 0.00 | 91 | 1039.7 |
| 20260901132723 | 77 | 321 | 0.0 | 0.0 | 0.00 | 0.00 | 0.00 | 91 | 1039.7 |
| 20260901132218 | 77 | 0 | 0.0 | 0.0 | 0.00 | 0.00 | 0.00 | 92 | 1039.7 |
| 20260901131713 | 77 | 238 | 0.0 | 0.0 | 0.00 | 0.00 | 0.00 | 92 | 1039.8 |
| 20260901131213 | 77 | 28 | 0.0 | 0.0 | 0.00 | 0.00 | 0.00 | 93 | 1039.9 |
| 20260901130708 | 76 | 359 | 0.0 | 0.0 | 0.00 | 0.00 | 0.00 | 93 | 1039.9 |
| 20260901130207 | 76 | 293 | 0.0 | 0.0 | 0.00 | 0.00 | 0.00 | 94 | 1040.0 |
| 20260901125705 | 76 | 266 | 0.0 | 0.0 | 0.00 | 0.00 | 0.00 | 94 | 1039.8 |
| 20260901125200 | 75 | 297 | 0.0 | 0.0 | 0.00 | 0.00 | 0.00 | 95 | 1039.7 |
| 20260901124654 | 75 | 324 | 0.0 | 0.0 | 0.00 | 0.00 | 0.00 | 95 | 1039.5 |
| 20260901124149 | 75 | 284 | 0.0 | 0.0 | 0.00 | 0.00 | 0.00 | 95 | 1039.6 |
| 20260901123644 | 75 | 46 | 0.0 | 0.0 | 0.00 | 0.00 | 0.00 | 96 | 1039.6 |
| 20260901123143 | 74 | 79 | 0.0 | 0.0 | 0.00 | 0.00 | 0.00 | 96 | 1039.6 |
| 20260901122642 | 74 | 87 | 0.0 | 0.0 | 0.00 | 0.00 | 0.00 | 96 | 1039.6 |
| 20260901122137 | 74 | 54 | 0.0 | 0.0 | 0.00 | 0.00 | 0.00 | 97 | 1039.5 |
| 20260901121631 | 74 | 12 | 0.0 | 0.0 | 0.00 | 0.00 | 0.00 | 97 | 1039.3 |
| 20260901121126 | 74 | 20 | 0.0 | 0.0 | 0.00 | 0.00 | 0.00 | 98 | 1039.2 |
| 20260901120621 | 74 | 16 | 0.0 | 0.0 | 0.00 | 0.00 | 0.00 | 98 | 1039.1 |
| 20260901120116 | 74 | 12 | 0.0 | 0.0 | 0.00 | 0.00 | 0.00 | 98 | 1039.1 |
| 20260901115611 | 73 | 26 | 0.0 | 0.0 | 0.00 | 0.00 | 0.00 | 98 | 1038.7 |
| 20260901115108 | 74 | 27 | 0.0 | 0.0 | 0.00 | 0.00 | 0.00 | 98 | 1038.8 |
| 20260901114604 | 74 | 43 | 0.0 | 0.0 | 0.00 | 0.00 | 0.00 | 98 | 1038.8 |
| 20260901114102 | 74 | 83 | 0.0 | 0.0 | 0.00 | 0.00 | 0.00 | 97 | 1038.6 |
| 20260901113601 | 74 | 76 | 0.0 | 0.0 | 0.00 | 0.00 | 0.00 | 97 | 1038.8 |
| 20260901113052 | 74 | 68 | 0.0 | 0.0 | 0.00 | 0.00 | 0.00 | 96 | 1038.4 |
| 20260901112551 | 74 | 34 | 0.0 | 0.0 | 0.00 | 0.00 | 0.00 | 96 | 1038.7 |
| 20260901112046 | 74 | 340 | 0.0 | 0.0 | 0.00 | 0.00 | 0.00 | 97 | 1038.7 |
| 20260901111545 | 74 | 2 | 0.0 | 0.0 | 0.00 | 0.00 | 0.00 | 96 | 1038.7 |
| 20260901111043 | 74 | 2 | 0.0 | 0.0 | 0.00 | 0.00 | 0.00 | 96 | 1038.7 |
| 20260901110539 | 74 | 2 | 0.0 | 0.0 | 0.00 | 0.00 | 0.00 | 96 | 1038.5 |
| 20260901110035 | 74 | 2 | 0.0 | 0.0 | 0.00 | 0.00 | 0.00 | 96 | 1038.6 |
| 20260901105532 | 74 | 2 | 0.0 | 0.0 | 0.00 | 0.00 | 0.00 | 96 | 1038.5 |
| 20260901105030 | 74 | 2 | 0.0 | 0.0 | 0.00 | 0.00 | 0.00 | 96 | 1038.3 |
| 20260901104527 | 74 | 2 | 0.0 | 0.0 | 0.00 | 0.00 | 0.00 | 96 | 1038.5 |
| 20260901104022 | 75 | 2 | 0.0 | 0.0 | 0.00 | 0.00 | 0.00 | 96 | 1038.4 |
| 20260901103521 | 75 | 2 | 0.0 | 0.0 | 0.00 | 0.00 | 0.00 | 96 | 1038.3 |
| 20260901103018 | 75 | 2 | 0.0 | 0.0 | 0.00 | 0.00 | 0.00 | 96 | 1038.5 |
| 20260901102517 | 75 | 2 | 0.0 | 0.0 | 0.00 | 0.00 | 0.00 | 96 | 1038.3 |
| 20260901102012 | 75 | 3 | 0.0 | 0.0 | 0.00 | 0.00 | 0.00 | 96 | 1038.2 |
| 20260901101508 | 75 | 30 | 0.0 | 0.0 | 0.00 | 0.00 | 0.00 | 96 | 1038.4 |
| 20260901101007 | 75 | 25 | 0.0 | 0.0 | 0.00 | 0.00 | 0.00 | 96 | 1038.2 |
| 20260901100502 | 75 | 25 | 0.0 | 0.0 | 0.00 | 0.00 | 0.00 | 96 | 1038.2 |
| 20260901100000 | 75 | 25 | 0.0 | 0.0 | 0.00 | 0.00 | 0.00 | 96 | 1038.2 |
| 20260901095459 | 75 | 29 | 0.0 | 0.0 | 0.00 | 0.00 | 0.00 | 96 | 1038.4 |
| 20260901094957 | 75 | 38 | 0.0 | 0.0 | 0.00 | 0.00 | 0.00 | 96 | 1038.4 |
| 20260901094452 | 75 | 164 | 0.0 | 0.0 | 0.00 | 0.00 | 0.00 | 96 | 1038.4 |
| 20260901093947 | 75 | 176 | 0.0 | 0.0 | 0.00 | 0.00 | 0.00 | 96 | 1038.3 |
| 20260901093442 | 75 | 174 | 0.0 | 0.0 | 0.00 | 0.00 | 0.00 | 96 | 1038.2 |
| 20260901092941 | 75 | 312 | 0.0 | 0.0 | 0.00 | 0.00 | 0.00 | 95 | 1037.8 |
| 20260901092437 | 76 | 353 | 0.0 | 0.0 | 0.00 | 0.00 | 0.00 | 95 | 1038.1 |
| 20260901091934 | 76 | 350 | 0.0 | 0.0 | 0.00 | 0.00 | 0.00 | 95 | 1038.0 |
| 20260901091433 | 76 | 346 | 0.0 | 0.0 | 0.00 | 0.00 | 0.00 | 95 | 1038.0 |
| 20260901090929 | 76 | 321 | 0.0 | 0.0 | 0.00 | 0.00 | 0.00 | 96 | 1038.2 |
| 20260901090428 | 75 | 343 | 0.0 | 0.0 | 0.00 | 0.00 | 0.00 | 96 | 1038.1 |
| 20260901085924 | 75 | 10 | 0.0 | 0.0 | 0.00 | 0.00 | 0.00 | 96 | 1038.1 |
| 20260901085420 | 75 | 9 | 0.0 | 0.0 | 0.00 | 0.00 | 0.00 | 96 | 1037.9 |
| 20260901084916 | 75 | 12 | 0.0 | 0.0 | 0.00 | 0.00 | 0.00 | 96 | 1037.8 |
| 20260901084413 | 75 | 14 | 0.0 | 0.0 | 0.00 | 0.00 | 0.00 | 96 | 1038.0 |
| 20260901083908 | 75 | 16 | 0.0 | 0.0 | 0.00 | 0.00 | 0.00 | 96 | 1038.0 |
| 20260901083408 | 75 | 16 | 0.0 | 0.0 | 0.00 | 0.00 | 0.00 | 96 | 1037.8 |
| 20260901082906 | 76 | 16 | 0.0 | 0.0 | 0.00 | 0.00 | 0.00 | 96 | 1037.9 |
| 20260901082401 | 76 | 33 | 0.0 | 0.0 | 0.00 | 0.00 | 0.00 | 96 | 1037.7 |
| 20260901081855 | 76 | 35 | 0.0 | 0.0 | 0.00 | 0.00 | 0.00 | 96 | 1037.9 |
| 20260901081351 | 76 | 46 | 0.0 | 0.0 | 0.00 | 0.00 | 0.00 | 96 | 1037.9 |
| 20260901080851 | 76 | 59 | 0.0 | 0.0 | 0.00 | 0.00 | 0.00 | 96 | 1037.7 |
| 20260901080345 | 76 | 74 | 0.0 | 0.0 | 0.00 | 0.00 | 0.00 | 96 | 1037.6 |
| 20260901075840 | 76 | 96 | 0.0 | 0.0 | 0.00 | 0.00 | 0.00 | 96 | 1037.6 |
| 20260901075335 | 76 | 52 | 0.0 | 0.0 | 0.00 | 0.00 | 0.00 | 95 | 1037.5 |
| 20260901074830 | 76 | 20 | 0.0 | 0.0 | 0.00 | 0.00 | 0.00 | 95 | 1037.3 |
| 20260901074324 | 76 | 8 | 0.0 | 0.0 | 0.00 | 0.00 | 0.00 | 95 | 1037.5 |
| 20260901073820 | 76 | 8 | 0.0 | 0.0 | 0.00 | 0.00 | 0.00 | 95 | 1037.5 |
| 20260901073315 | 76 | 13 | 0.0 | 0.0 | 0.00 | 0.00 | 0.00 | 95 | 1037.5 |
| 20260901072812 | 76 | 13 | 0.0 | 0.0 | 0.00 | 0.00 | 0.00 | 94 | 1037.5 |
| 20260901072311 | 76 | 355 | 0.0 | 0.0 | 0.00 | 0.00 | 0.00 | 94 | 1037.8 |
| 20260901071807 | 76 | 353 | 0.0 | 0.0 | 0.00 | 0.00 | 0.00 | 95 | 1037.5 |
| 20260901071305 | 77 | 43 | 0.0 | 0.0 | 0.00 | 0.00 | 0.00 | 94 | 1037.5 |
| 20260901070804 | 77 | 13 | 0.0 | 0.0 | 0.00 | 0.00 | 0.00 | 94 | 1037.7 |
| 20260901070259 | 77 | 10 | 0.0 | 0.0 | 0.00 | 0.00 | 0.00 | 94 | 1037.4 |
| 20260901065759 | 77 | 14 | 0.0 | 0.0 | 0.00 | 0.00 | 0.00 | 94 | 1037.6 |
| 20260901065254 | 77 | 8 | 0.0 | 0.0 | 0.00 | 0.00 | 0.00 | 93 | 1037.5 |
| 20260901064750 | 77 | 3 | 0.0 | 0.0 | 0.00 | 0.00 | 0.00 | 93 | 1037.5 |
| 20260901064246 | 77 | 34 | 0.0 | 0.0 | 0.00 | 0.00 | 0.00 | 93 | 1037.8 |
| 20260901063743 | 77 | 40 | 0.0 | 0.0 | 0.00 | 0.00 | 0.00 | 93 | 1037.8 |
| 20260901063239 | 77 | 63 | 0.0 | 0.0 | 0.00 | 0.00 | 0.00 | 93 | 1037.6 |
| 20260901062735 | 77 | 36 | 0.0 | 0.0 | 0.00 | 0.00 | 0.00 | 93 | 1037.8 |
| 20260901062231 | 77 | 350 | 0.0 | 0.0 | 0.00 | 0.00 | 0.00 | 93 | 1037.7 |
| 20260901061726 | 77 | 12 | 0.0 | 0.0 | 0.00 | 0.00 | 0.00 | 93 | 1037.7 |
| 20260901061225 | 77 | 12 | 0.0 | 0.0 | 0.00 | 0.00 | 0.00 | 93 | 1037.6 |
| 20260901060721 | 77 | 155 | 0.9 | 0.9 | 0.00 | 0.00 | 0.00 | 93 | 1037.6 |
| 20260901060217 | 77 | 110 | 0.0 | 0.0 | 0.00 | 0.00 | 0.00 | 93 | 1037.8 |
| 20260901055712 | 77 | 28 | 0.0 | 0.0 | 0.00 | 0.00 | 0.00 | 92 | 1037.7 |
| 20260901055209 | 77 | 11 | 0.0 | 0.0 | 0.00 | 0.00 | 0.00 | 93 | 1037.8 |
| 20260901054705 | 77 | 40 | 0.0 | 0.0 | 0.00 | 0.00 | 0.00 | 92 | 1038.0 |
| 20260901054201 | 77 | 213 | 0.0 | 0.0 | 0.00 | 0.00 | 0.00 | 92 | 1037.8 |
| 20260901053657 | 77 | 300 | 0.0 | 0.0 | 0.00 | 0.00 | 0.00 | 92 | 1037.8 |
| 20260901053153 | 77 | 22 | 0.0 | 0.0 | 0.00 | 0.00 | 0.00 | 91 | 1037.8 |
| 20260901052648 | 78 | 22 | 0.0 | 0.0 | 0.00 | 0.00 | 0.00 | 91 | 1037.8 |
| 20260901052143 | 78 | 3 | 0.0 | 0.0 | 0.00 | 0.00 | 0.00 | 91 | 1037.9 |
| 20260901051642 | 78 | 55 | 0.0 | 0.0 | 0.00 | 0.00 | 0.00 | 91 | 1038.0 |
| 20260901051141 | 78 | 352 | 0.0 | 0.0 | 0.00 | 0.00 | 0.00 | 91 | 1037.8 |
| 20260901050637 | 78 | 352 | 0.0 | 0.0 | 0.00 | 0.00 | 0.00 | 90 | 1037.8 |
| 20260901050132 | 78 | 353 | 0.0 | 0.0 | 0.00 | 0.00 | 0.00 | 90 | 1037.8 |
| 20260901045632 | 78 | 354 | 0.0 | 0.0 | 0.00 | 0.00 | 0.00 | 90 | 1037.6 |
| 20260901045128 | 78 | 354 | 0.0 | 0.0 | 0.00 | 0.00 | 0.00 | 90 | 1037.8 |
| 20260901044623 | 78 | 354 | 0.0 | 0.0 | 0.00 | 0.00 | 0.00 | 89 | 1037.9 |
| 20260901044119 | 78 | 354 | 0.0 | 0.0 | 0.00 | 0.00 | 0.00 | 89 | 1037.8 |
| 20260901043615 | 78 | 11 | 0.0 | 0.0 | 0.00 | 0.00 | 0.00 | 89 | 1037.8 |
| 20260901043110 | 78 | 317 | 0.0 | 0.0 | 0.00 | 0.00 | 0.00 | 89 | 1037.6 |
| 20260901042609 | 79 | 306 | 0.0 | 0.0 | 0.00 | 0.00 | 0.00 | 89 | 1037.9 |
| 20260901042105 | 78 | 1 | 0.0 | 0.0 | 0.00 | 0.00 | 0.00 | 88 | 1037.9 |
| 20260901041600 | 78 | 1 | 0.0 | 0.0 | 0.00 | 0.00 | 0.00 | 88 | 1037.9 |
| 20260901041055 | 79 | 1 | 0.0 | 0.0 | 0.00 | 0.00 | 0.00 | 87 | 1037.8 |
| 20260901040554 | 79 | 1 | 0.0 | 0.0 | 0.00 | 0.00 | 0.00 | 87 | 1037.9 |
| 20260901040049 | 79 | 1 | 0.0 | 0.0 | 0.00 | 0.00 | 0.00 | 86 | 1038.1 |
| 20260901035547 | 79 | 1 | 0.0 | 0.0 | 0.00 | 0.00 | 0.00 | 86 | 1038.0 |
| 20260901035046 | 79 | 1 | 0.0 | 0.0 | 0.00 | 0.00 | 0.00 | 86 | 1038.1 |
| 20260901034545 | 79 | 1 | 0.0 | 0.0 | 0.00 | 0.00 | 0.00 | 86 | 1038.0 |
| 20260901034040 | 79 | 1 | 0.0 | 0.0 | 0.00 | 0.00 | 0.00 | 85 | 1037.9 |
| 20260901033533 | 79 | 1 | 0.0 | 0.0 | 0.00 | 0.00 | 0.00 | 85 | 1038.0 |
| 20260901033034 | 80 | 2 | 0.0 | 0.0 | 0.00 | 0.00 | 0.00 | 85 | 1037.7 |
| 20260901032532 | 80 | 3 | 0.0 | 0.0 | 0.00 | 0.00 | 0.00 | 85 | 1037.8 |
| 20260901032028 | 80 | 3 | 0.0 | 0.0 | 0.00 | 0.00 | 0.00 | 84 | 1037.8 |
| 20260901031523 | 80 | 4 | 0.0 | 0.0 | 0.00 | 0.00 | 0.00 | 84 | 1037.8 |
| 20260901031019 | 80 | 5 | 0.0 | 0.0 | 0.00 | 0.00 | 0.00 | 83 | 1037.8 |
| 20260901030518 | 80 | 7 | 0.0 | 0.0 | 0.00 | 0.00 | 0.00 | 84 | 1037.8 |
| 20260901030013 | 80 | 7 | 0.0 | 0.0 | 0.00 | 0.00 | 0.00 | 83 | 1037.9 |
| 20260901025513 | 80 | 7 | 0.0 | 0.0 | 0.00 | 0.00 | 0.00 | 82 | 1038.0 |
| 20260901025007 | 81 | 7 | 0.0 | 0.0 | 0.00 | 0.00 | 0.00 | 82 | 1038.0 |
| 20260901024502 | 82 | 7 | 0.0 | 0.0 | 0.00 | 0.00 | 0.00 | 80 | 1038.0 |
| 20260901024001 | 82 | 7 | 0.0 | 0.0 | 0.00 | 0.00 | 0.00 | 79 | 1037.9 |
| 20260901023455 | 82 | 7 | 0.0 | 0.0 | 0.00 | 0.00 | 0.00 | 79 | 1038.2 |
| 20260901022950 | 82 | 347 | 0.0 | 0.0 | 0.00 | 0.00 | 0.00 | 80 | 1037.8 |
| 20260901022446 | 82 | 346 | 0.0 | 0.0 | 0.00 | 0.00 | 0.00 | 80 | 1038.0 |
| 20260901021940 | 82 | 347 | 0.0 | 0.0 | 0.00 | 0.00 | 0.00 | 78 | 1037.9 |
| 20260901021436 | 82 | 347 | 0.0 | 0.0 | 0.00 | 0.00 | 0.00 | 78 | 1038.0 |
| 20260901020931 | 82 | 347 | 0.0 | 0.0 | 0.00 | 0.00 | 0.00 | 78 | 1037.8 |
| 20260901020427 | 83 | 347 | 0.0 | 0.0 | 0.00 | 0.00 | 0.00 | 77 | 1037.7 |
| 20260901015925 | 83 | 347 | 0.0 | 0.0 | 0.00 | 0.00 | 0.00 | 76 | 1037.7 |
| 20260901015423 | 83 | 347 | 0.0 | 0.0 | 0.00 | 0.00 | 0.00 | 76 | 1037.7 |
| 20260901014921 | 84 | 347 | 0.0 | 0.0 | 0.00 | 0.00 | 0.00 | 75 | 1037.7 |
| 20260901014418 | 84 | 347 | 0.0 | 0.0 | 0.00 | 0.00 | 0.00 | 75 | 1037.7 |
| 20260901013913 | 84 | 347 | 0.0 | 0.0 | 0.00 | 0.00 | 0.00 | 75 | 1037.6 |
| 20260901013409 | 84 | 347 | 0.0 | 0.0 | 0.00 | 0.00 | 0.00 | 75 | 1037.3 |
| 20260901012904 | 84 | 347 | 0.0 | 0.0 | 0.00 | 0.00 | 0.00 | 74 | 1037.2 |
| 20260901012359 | 84 | 347 | 0.0 | 0.0 | 0.00 | 0.00 | 0.00 | 74 | 1037.2 |
| 20260901011854 | 84 | 347 | 0.0 | 0.0 | 0.00 | 0.00 | 0.00 | 74 | 1037.2 |
| 20260901011350 | 84 | 347 | 0.0 | 0.0 | 0.00 | 0.00 | 0.00 | 74 | 1037.2 |
| 20260901010849 | 84 | 347 | 0.0 | 0.0 | 0.00 | 0.00 | 0.00 | 73 | 1037.2 |
| 20260901010343 | 84 | 347 | 0.0 | 0.0 | 0.00 | 0.00 | 0.00 | 73 | 1036.9 |
| 20260901005842 | 85 | 347 | 0.0 | 0.0 | 0.00 | 0.00 | 0.00 | 72 | 1037.1 |
| 20260901005337 | 85 | 347 | 0.0 | 0.0 | 0.00 | 0.00 | 0.00 | 72 | 1037.0 |
| 20260901004833 | 85 | 348 | 0.0 | 0.0 | 0.00 | 0.00 | 0.00 | 71 | 1036.9 |
| 20260901004326 | 85 | 348 | 0.0 | 0.0 | 0.00 | 0.00 | 0.00 | 71 | 1036.8 |
| 20260901003820 | 86 | 348 | 0.0 | 0.0 | 0.00 | 0.00 | 0.00 | 70 | 1036.8 |
| 20260901003315 | 86 | 348 | 0.0 | 0.0 | 0.00 | 0.00 | 0.00 | 69 | 1036.9 |
| 20260901002808 | 86 | 348 | 0.0 | 0.0 | 0.00 | 0.00 | 0.00 | 69 | 1036.8 |
| 20260901002305 | 87 | 347 | 0.0 | 0.0 | 0.00 | 0.00 | 0.00 | 68 | 1036.8 |
| 20260901001758 | 87 | 348 | 0.0 | 0.0 | 0.00 | 0.00 | 0.00 | 67 | 1036.8 |
| 20260901001254 | 87 | 348 | 0.0 | 0.0 | 0.00 | 0.00 | 0.00 | 67 | 1036.7 |
| 20260901000749 | 87 | 2 | 0.0 | 0.0 | 0.00 | 0.00 | 0.00 | 67 | 1036.9 |
| 20260901000244 | 87 | 27 | 0.0 | 0.0 | 0.00 | 0.00 | 0.00 | 67 | 1036.9 |
| 20260831235742 | 87 | 342 | 0.0 | 0.0 | 0.00 | 0.00 | 0.00 | 67 | 1036.8 |
| 20260831235239 | 87 | 22 | 0.0 | 0.0 | 0.00 | 0.00 | 0.00 | 67 | 1036.7 |
| 20260831234739 | 88 | 6 | 0.0 | 0.0 | 0.00 | 0.00 | 0.00 | 66 | 1037.1 |
| 20260831234238 | 88 | 5 | 0.0 | 0.0 | 0.00 | 0.00 | 0.00 | 66 | 1036.8 |
| 20260831233734 | 88 | 350 | 0.0 | 0.0 | 0.00 | 0.00 | 0.00 | 66 | 1036.9 |
| 20260831233229 | 88 | 351 | 0.0 | 0.0 | 0.00 | 0.00 | 0.00 | 65 | 1036.8 |
| 20260831232724 | 88 | 350 | 0.0 | 0.0 | 0.00 | 0.00 | 0.00 | 65 | 1036.8 |
| 20260831232220 | 88 | 351 | 0.0 | 0.0 | 0.00 | 0.00 | 0.00 | 65 | 1036.8 |
| 20260831231716 | 88 | 28 | 0.0 | 0.0 | 0.00 | 0.00 | 0.00 | 64 | 1036.8 |
| 20260831231213 | 88 | 352 | 0.0 | 0.0 | 0.00 | 0.00 | 0.00 | 64 | 1036.9 |
| 20260831230712 | 89 | 2 | 0.0 | 0.0 | 0.00 | 0.00 | 0.00 | 64 | 1037.1 |
| 20260831230208 | 89 | 48 | 0.0 | 0.0 | 0.00 | 0.00 | 0.00 | 64 | 1037.2 |
| 20260831225707 | 89 | 19 | 0.0 | 0.0 | 0.00 | 0.00 | 0.00 | 63 | 1037.1 |
| 20260831225202 | 89 | 11 | 0.0 | 0.0 | 0.00 | 0.00 | 0.00 | 62 | 1037.0 |
| 20260831224656 | 89 | 25 | 0.0 | 0.0 | 0.00 | 0.00 | 0.00 | 61 | 1036.9 |
| 20260831224151 | 89 | 12 | 0.0 | 0.0 | 0.00 | 0.00 | 0.00 | 61 | 1037.0 |
| 20260831223647 | 89 | 30 | 0.0 | 0.0 | 0.00 | 0.00 | 0.00 | 61 | 1036.9 |
| 20260831223144 | 89 | 0 | 0.0 | 0.0 | 0.00 | 0.00 | 0.00 | 63 | 1036.7 |
| 20260831222639 | 90 | 353 | 0.0 | 0.0 | 0.00 | 0.00 | 0.00 | 64 | 1036.7 |
| 20260831222134 | 90 | 2 | 0.0 | 0.0 | 0.00 | 0.00 | 0.00 | 63 | 1036.8 |
| 20260831221630 | 89 | 20 | 0.0 | 0.0 | 0.00 | 0.00 | 0.00 | 63 | 1036.9 |
| 20260831221125 | 89 | 16 | 0.0 | 0.0 | 0.00 | 0.00 | 0.00 | 64 | 1036.8 |
| 20260831220620 | 90 | 1 | 0.0 | 0.0 | 0.00 | 0.00 | 0.00 | 64 | 1036.8 |
| 20260831220115 | 90 | 339 | 0.9 | 1.7 | 0.00 | 0.00 | 0.00 | 63 | 1037.1 |
| 20260831215610 | 90 | 347 | 0.0 | 0.0 | 0.00 | 0.00 | 0.00 | 63 | 1036.8 |
| 20260831215106 | 90 | 358 | 0.0 | 0.0 | 0.00 | 0.00 | 0.00 | 63 | 1037.0 |
| 20260831214603 | 91 | 32 | 0.0 | 0.0 | 0.00 | 0.00 | 0.00 | 61 | 1037.0 |
| 20260831214059 | 90 | 10 | 0.0 | 0.0 | 0.00 | 0.00 | 0.00 | 62 | 1037.2 |
| 20260831213556 | 91 | 26 | 0.0 | 0.0 | 0.00 | 0.00 | 0.00 | 60 | 1037.1 |
| 20260831213052 | 91 | 19 | 0.0 | 0.0 | 0.00 | 0.00 | 0.00 | 61 | 1037.0 |
| 20260831212547 | 91 | 21 | 0.0 | 0.0 | 0.00 | 0.00 | 0.00 | 61 | 1037.3 |
| 20260831212043 | 91 | 350 | 0.0 | 0.9 | 0.00 | 0.00 | 0.00 | 60 | 1037.3 |
| 20260831211537 | 91 | 17 | 0.0 | 0.0 | 0.00 | 0.00 | 0.00 | 62 | 1037.3 |
| 20260831211036 | 90 | 43 | 0.0 | 0.0 | 0.00 | 0.00 | 0.00 | 61 | 1037.4 |
| 20260831210532 | 89 | 143 | 0.9 | 0.9 | 0.00 | 0.00 | 0.00 | 62 | 1037.6 |
| 20260831210028 | 89 | 20 | 0.0 | 0.9 | 0.00 | 0.00 | 0.00 | 62 | 1037.3 |
| 20260831205522 | 91 | 27 | 0.9 | 0.9 | 0.00 | 0.00 | 0.00 | 63 | 1037.4 |
| 20260831205019 | 92 | 358 | 0.0 | 0.0 | 0.00 | 0.00 | 0.00 | 62 | 1037.4 |
| 20260831204518 | 92 | 3 | 0.0 | 0.9 | 0.00 | 0.00 | 0.00 | 61 | 1037.5 |
| 20260831204016 | 92 | 61 | 0.0 | 0.0 | 0.00 | 0.00 | 0.00 | 58 | 1037.3 |
| 20260831203511 | 91 | 108 | 0.9 | 1.7 | 0.00 | 0.00 | 0.00 | 59 | 1037.5 |
| 20260831203010 | 90 | 358 | 0.0 | 0.0 | 0.00 | 0.00 | 0.00 | 62 | 1037.4 |
| 20260831202504 | 90 | 359 | 1.7 | 1.7 | 0.00 | 0.00 | 0.00 | 63 | 1037.5 |
| 20260831202004 | 90 | 24 | 0.0 | 0.0 | 0.00 | 0.00 | 0.00 | 62 | 1037.3 |
| 20260831201502 | 92 | 27 | 0.0 | 0.0 | 0.00 | 0.00 | 0.00 | 60 | 1037.5 |
| 20260831200958 | 92 | 11 | 0.0 | 0.0 | 0.00 | 0.00 | 0.00 | 60 | 1037.8 |
| 20260831200454 | 91 | 13 | 0.0 | 0.0 | 0.00 | 0.00 | 0.00 | 58 | 1037.8 |
| 20260831195948 | 90 | 110 | 0.9 | 0.9 | 0.00 | 0.00 | 0.00 | 58 | 1037.9 |
| 20260831195444 | 91 | 4 | 0.9 | 0.9 | 0.00 | 0.00 | 0.00 | 60 | 1038.1 |
| 20260831194938 | 91 | 10 | 0.0 | 0.9 | 0.00 | 0.00 | 0.00 | 59 | 1038.0 |
| 20260831194434 | 91 | 25 | 0.0 | 0.0 | 0.00 | 0.00 | 0.00 | 61 | 1038.0 |
| 20260831193934 | 91 | 351 | 0.0 | 0.0 | 0.00 | 0.00 | 0.00 | 58 | 1038.0 |
| 20260831193429 | 91 | 18 | 0.0 | 0.0 | 0.00 | 0.00 | 0.00 | 60 | 1038.3 |
| 20260831192924 | 91 | 4 | 0.0 | 0.0 | 0.00 | 0.00 | 0.00 | 62 | 1038.3 |
| 20260831192419 | 90 | 20 | 0.0 | 0.0 | 0.00 | 0.00 | 0.00 | 64 | 1038.2 |
| 20260831191914 | 90 | 19 | 0.0 | 0.0 | 0.00 | 0.00 | 0.00 | 63 | 1038.2 |
| 20260831191410 | 91 | 41 | 0.0 | 0.0 | 0.00 | 0.00 | 0.00 | 63 | 1038.0 |
| 20260831190907 | 91 | 341 | 1.7 | 1.7 | 0.00 | 0.00 | 0.00 | 64 | 1038.2 |
| 20260831190406 | 91 | 17 | 0.0 | 0.0 | 0.00 | 0.00 | 0.00 | 61 | 1038.2 |
| 20260831185905 | 93 | 4 | 0.0 | 0.0 | 0.00 | 0.00 | 0.00 | 58 | 1038.2 |
| 20260831185402 | 92 | 5 | 0.0 | 0.0 | 0.00 | 0.00 | 0.00 | 60 | 1038.5 |
| 20260831184901 | 93 | 15 | 0.9 | 0.9 | 0.00 | 0.00 | 0.00 | 63 | 1038.5 |
| 20260831184355 | 93 | 15 | 0.0 | 0.0 | 0.00 | 0.00 | 0.00 | 60 | 1038.7 |
| 20260831183850 | 92 | 61 | 0.0 | 0.0 | 0.00 | 0.00 | 0.00 | 62 | 1038.7 |
| 20260831183345 | 91 | 32 | 0.9 | 0.9 | 0.00 | 0.00 | 0.00 | 61 | 1038.8 |
| 20260831182844 | 88 | 23 | 0.0 | 0.0 | 0.00 | 0.00 | 0.00 | 67 | 1038.9 |
| 20260831182339 | 88 | 352 | 0.0 | 0.0 | 0.00 | 0.00 | 0.00 | 67 | 1039.0 |
| 20260831181834 | 90 | 350 | 0.0 | 0.0 | 0.00 | 0.00 | 0.00 | 68 | 1039.0 |
| 20260831181330 | 91 | 19 | 0.0 | 0.0 | 0.00 | 0.00 | 0.00 | 62 | 1039.1 |
| 20260831180824 | 90 | 188 | 1.7 | 1.7 | 0.00 | 0.00 | 0.00 | 63 | 1039.2 |
| 20260831180319 | 89 | 342 | 0.0 | 0.0 | 0.00 | 0.00 | 0.00 | 69 | 1039.3 |
| 20260831175818 | 89 | 22 | 0.0 | 0.0 | 0.00 | 0.00 | 0.00 | 66 | 1039.1 |
| 20260831175315 | 88 | 26 | 0.0 | 0.0 | 0.00 | 0.00 | 0.00 | 66 | 1039.3 |
| 20260831174810 | 89 | 10 | 0.0 | 0.0 | 0.00 | 0.00 | 0.00 | 66 | 1039.3 |
| 20260831174306 | 89 | 3 | 0.0 | 0.0 | 0.00 | 0.00 | 0.00 | 65 | 1039.5 |
| 20260831173805 | 88 | 20 | 0.0 | 0.0 | 0.00 | 0.00 | 0.00 | 70 | 1039.5 |
| 20260831173259 | 87 | 16 | 0.0 | 0.0 | 0.00 | 0.00 | 0.00 | 70 | 1039.7 |
| 20260831172754 | 88 | 35 | 0.0 | 0.0 | 0.00 | 0.00 | 0.00 | 69 | 1039.8 |
| 20260831172249 | 87 | 16 | 0.0 | 0.0 | 0.00 | 0.00 | 0.00 | 72 | 1039.6 |
| 20260831171750 | 89 | 2 | 0.0 | 0.9 | 0.00 | 0.00 | 0.00 | 69 | 1039.6 |
| 20260831171247 | 90 | 351 | 0.0 | 0.0 | 0.00 | 0.00 | 0.00 | 69 | 1039.7 |
| 20260831170744 | 90 | 42 | 0.0 | 0.0 | 0.00 | 0.00 | 0.00 | 66 | 1039.7 |
| 20260831170239 | 89 | 348 | 0.0 | 0.0 | 0.00 | 0.00 | 0.00 | 68 | 1039.8 |
| 20260831165736 | 89 | 16 | 0.0 | 0.0 | 0.00 | 0.00 | 0.00 | 67 | 1039.6 |
| 20260831165232 | 89 | 36 | 0.0 | 0.0 | 0.00 | 0.00 | 0.00 | 71 | 1039.7 |
| 20260831164727 | 89 | 343 | 0.9 | 0.9 | 0.00 | 0.00 | 0.00 | 70 | 1039.8 |
| 20260831164224 | 88 | 18 | 0.0 | 0.0 | 0.00 | 0.00 | 0.00 | 69 | 1039.8 |
| 20260831163718 | 87 | 205 | 0.0 | 0.0 | 0.00 | 0.00 | 0.00 | 70 | 1040.2 |
| 20260831163214 | 87 | 110 | 0.0 | 0.0 | 0.00 | 0.00 | 0.00 | 68 | 1040.2 |
| 20260831162713 | 87 | 355 | 0.9 | 1.7 | 0.00 | 0.00 | 0.00 | 73 | 1040.3 |
| 20260831162212 | 87 | 355 | 0.0 | 0.0 | 0.00 | 0.00 | 0.00 | 74 | 1040.2 |
| 20260831161707 | 87 | 32 | 0.0 | 0.0 | 0.00 | 0.00 | 0.00 | 74 | 1040.1 |
| 20260831161203 | 86 | 334 | 0.9 | 1.7 | 0.00 | 0.00 | 0.00 | 77 | 1040.3 |
| 20260831160703 | 86 | 353 | 0.0 | 0.0 | 0.00 | 0.00 | 0.00 | 74 | 1040.3 |
| 20260831160158 | 86 | 85 | 0.9 | 0.9 | 0.00 | 0.00 | 0.00 | 76 | 1040.5 |
| 20260831155657 | 86 | 6 | 0.0 | 0.0 | 0.00 | 0.00 | 0.00 | 77 | 1040.4 |
| 20260831155154 | 86 | 21 | 0.0 | 0.0 | 0.00 | 0.00 | 0.00 | 77 | 1040.3 |